Regional Weather Roundup
Issued by NWS

Home | Current Version | Previous Version | Graphics & Text | Print | Product List | Glossary On
Versions: 1 2 3 4 5 6 7 8 9 10 11 12 13 14 15 16 17 18 19 20 21 22 23 24 25 26 27 28 29 30 31 32 33 34 35 36 37 38 39 40 41 42 43 44 45 46 47 48 49 50
000
ASUS43 KLOT 030708
RWRIL

ILLINOIS REGIONAL WEATHER ROUNDUP
NATIONAL WEATHER SERVICE CHICAGO/ROMEOVILLE IL
200 AM CDT THU SEP 03 2015

NOTE: "FAIR" INDICATES FEW OR NO CLOUDS BELOW 12,000 FEET WITH NO
SIGNIFICANT WEATHER AND/OR OBSTRUCTIONS TO VISIBILITY.

* THESE STATIONS ARE NOT UNDER NWS QUALITY CONTROL. THEY ALSO MAY NOT
  REPORT WEATHER SUCH AS PRECIPITATION OR FOG.

ILZ001-002-007-009-015-016-024-030800-
NORTHWEST ILLINOIS

CITY           SKY/WX    TMP DP  RH WIND       PRES   REMARKS
MOLINE         FAIR      76  68  76 SW8       29.94F
STERLING*      MOCLDY    73  72  94 CALM      29.94S
SAVANNA*       CLOUDY    73  69  88 CALM      29.94F
$$

ILZ003-004-008-010-011-017-018-030800-
NORTH CENTRAL ILLINOIS

CITY           SKY/WX    TMP DP  RH WIND       PRES   REMARKS
ROCKFORD       CLOUDY    74  69  85 S3        29.96F
FREEPORT*      CLOUDY    72  68  88 SW6       29.97F
ROCHELLE*      CLOUDY    69  68  96 CALM      29.97F
DE KALB*       MOCLDY    73  69  88 CALM      29.98S
PERU*          MOCLDY    73  68  85 S6        29.97F
$$

ILZ005-006-012>014-019>023-030800-
NORTHEAST ILLINOIS

CITY           SKY/WX    TMP DP  RH WIND       PRES   REMARKS
CHICAGO-OHARE  MOCLDY    74  68  81 CALM      29.95F
CHICAGO-MIDWAY CLOUDY    80  69  69 S5        29.95F HX  83
AURORA         MOCLDY    73  68  84 SW5       29.97F
LANSING*       PTCLDY    72  68  87 SW3       29.97F
JOLIET*        CLEAR     74  70  89 CALM      29.97S
WAUKEGAN       CLEAR     74  68  81 SW7       29.94F
DUPAGE AIRPORT MOCLDY    72  67  84 S6        29.96F
KANKAKEE*      PTCLDY    72  69  90 SW5       29.99F
WHEELING       PTCLDY    77  67  71 S6        29.96F
MORRIS*        CLEAR     70  67  88 S3        29.96S
ROMEOVILLE*    CLEAR     72  67  86 SW6       29.97F
NORTHERLY ISL    N/A     78  67  68 SW5         N/A  HX  80
$$

LMZ740>746-030800-
SOUTHERN LAKE MICHIGAN

STATION/POSITION SKY/WX   TEMP    WIND        PRES    VSBY  WAVE
                          AIR SEA DIR/SP/G                  HT/PER
                          (F)     (DEG/KT/KT) (MB)    (MI)  (FT/S)
SOUTHERN BUOY              74 71  200/  6/  6 1013.2F         0
WILMETTE HARBOR            72 62  330/  4/  6   N/A           0
HARRISON CRIB              80     190/ 10/ 11   N/A
BURNHAM HARBOR             79     220/  3/  7   N/A
CALUMET HARBOR             78     210/  3/  5   N/A
BURNS HARBOR               76     190/  9/ 12 1015.6R
MICHIGAN CITY              78     170/ 11/ 13   N/A
MICHIGAN CITY 6N           75 73  220/  8/  8   N/A           1
ST. JOSEPH                 75 74  230/  6/  8   N/A           1
$$

ILZ025>027-034>036-040-047-049-050-058-095>099-030800-
WEST-CENTRAL ILLINOIS

CITY           SKY/WX    TMP DP  RH WIND       PRES   REMARKS
QUINCY         PTCLDY    73  68  84 S5        29.97F
GALESBURG*     PTCLDY    72  68  88 S5        29.96F
MACOMB*        PTCLDY    70  68  91 S3        29.99F
JACKSONVILLE*  CLEAR     74  69  81 S5        29.98S
PITTSFIELD*    CLEAR     74  68  82 S3        29.99F
$$

ILZ028>032-037-038-041>044-048-051>054-059>061-030800-
CENTRAL ILLINOIS

CITY           SKY/WX    TMP DP  RH WIND       PRES   REMARKS
PONTIAC        PTCLDY    73  69  88 S3        29.99S
BLOOMINGTON    CLEAR     72  69  90 SW6       30.01S
DECATUR        CLEAR     72  65  78 CALM      30.00F
PEORIA         MOCLDY    76  66  71 CALM      29.98S
LACON*         PTCLDY    72  67  82 S3        29.96S
LINCOLN*       CLEAR     70  66  86 CALM      29.98F
SPRINGFIELD    CLEAR     72  68  87 S5        29.99F
TAYLORVILLE    CLEAR     70  68  94 S5        30.00S
$$

ILZ033-039-045-046-055>057-062-063-030800-
EAST-CENTRAL ILLINOIS

CITY           SKY/WX    TMP DP  RH WIND       PRES   REMARKS
CHAMPAIGN      CLEAR     70  67  90 S6        30.00F
RANTOUL*       PTCLDY    74  69  85 SW6       29.99F
MATTOON        CLEAR     74  67  78 SW5       30.00S
PARIS*         CLEAR     67  66  97 CALM      30.01F
$$

ILZ079-100>102-030800-
SOUTHWEST ILLINOIS

CITY           SKY/WX    TMP DP  RH WIND       PRES   REMARKS
ALTON          CLEAR     70  68  95 CALM      29.99F
BELLEVILLE     CLEAR     71  71 100 CALM      29.98F
CAHOKIA*       CLEAR     72  68  87 S3        29.99S
SPARTA*        CLEAR     70  68  95 CALM      30.01F
$$

ILZ064>066-069>071-074>076-080>082-084>086-088>090-092>094-030800-
SOUTH-CENTRAL ILLINOIS

CITY           SKY/WX    TMP DP  RH WIND       PRES   REMARKS
CARBONDALE     FOG       68  67  96 CALM      30.01S VSB 1/4
CAIRO*         CLEAR     67  67 100 CALM      30.00F FOG
EFFINGHAM*     CLEAR     69  66  90 CALM      30.02S
MARION         CLEAR     73  72  94 S3        30.02S
MT. VERNON     CLEAR     66  63  88 CALM      30.01F
CENTRALIA*     CLEAR     69  69  99 CALM      30.00S
SALEM*         CLEAR     69  67  92 CALM      30.00F
METROPOLIS*    CLEAR     68  68 100 CALM      30.01F FOG
$$

ILZ067-068-072-073-078-083-087-091-030800-
SOUTHEAST ILLINOIS

CITY           SKY/WX    TMP DP  RH WIND       PRES   REMARKS
LAWRENCEVILLE  CLEAR     68  67  96 S5        30.00F FOG
FLORA*         CLEAR     67  65  94 CALM      30.01F
FAIRFIELD*     CLEAR     68  68  98 CALM      30.00F FOG
HARRISBURG*    CLEAR     69  68  97 CALM      30.01F
ROBINSON*      CLEAR     66  65  96 CALM      30.01F FOG
CARMI*         CLEAR     67  67  99 CALM      30.00F FOG
$$

ABBREVIATIONS USED IN REMARKS
   TC - TEMPERATURE IN CELSIUS
  WCI - WIND CHILL INDEX
   HX - HEAT INDEX
  VSB - VISIBILITY
$$




USA.gov is the U.S. government's official web portal to all federal, state and local government web resources and services.